Regional Weather Roundup
Issued by NWS

Home | Current Version | Previous Version | Text Only | Print | Product List | Glossary Off
Versions: 1 2 3 4 5 6 7 8 9 10 11 12 13 14 15 16 17 18 19 20 21 22 23 24 25 26 27 28 29

000
ASUS45 KSLC 251110
RWRUT

UTAH REGIONAL WEATHER ROUNDUP
NATIONAL WEATHER SERVICE SALT LAKE CITY UT
500 AM MDT SAT OCT 25 2014

UTZ001>011-023>025-251200-

NORTHERN UTAH

CITY           SKY/WX    TMP DP  RH WIND       PRES   REMARKS
BRIGHAM CITY   CLEAR     51  33  49 CALM      30.08S
HILL AFB       CLEAR     56  28  34 SE9       30.09F
LOGAN          CLEAR     36  30  79 CALM      30.09F
OGDEN          CLEAR     51  29  42 S9        30.07F
PROVO AIRPORT  CLEAR     45  28  53 E6        30.13S
SALT LAKE CITY CLEAR     58  30  34 SE13      30.06F
VERNAL         CLEAR     41  32  70 NW3       30.24F
WENDOVER       CLEAR     45  34  65 CALM      30.06F
HEBER CITY     CLEAR     34  30  86 CALM      30.19F
WEST JORDAN    CLEAR     52  34  50 S9        30.10F

$$

UTZ012>022-026-027-251200-

SOUTHERN/CENTRAL UTAH

CITY           SKY/WX    TMP DP  RH WIND       PRES   REMARKS
BLANDING       PTCLDY    49  30  49 N7        30.35S
BRYCE CANYON   CLEAR     31  25  78 W6        30.35F WCI  25
CEDAR CITY     PTCLDY    49  32  52 S5        30.20F
DELTA          CLEAR     54  30  39 S7        30.14S
HANKSVILLE       N/A     39  30  70 CALM      30.22S
MILFORD        CLEAR     40  28  62 SW5       30.16F
MOAB/CYNLANDS  CLEAR     51  33  50 CALM      30.19F
PRICE          CLEAR     47  32  56 CALM      30.25F
ST GEORGE      SUNNY     57  30  35 CALM      30.12F
KANAB            N/A     39  30  70 NE6       30.26F WCI  35

$$

REGIONAL REPORTS     COLORADO/ARIZONA

CITY           SKY/WX    TMP DP  RH WIND       PRES   REMARKS
CRAIG, CO      CLEAR     28  23  81 CALM      30.31F
GRAND JUNCTION CLEAR     45  32  60 CALM      30.25S
RIFLE          CLEAR     35  30  82 E3        30.31S
MONTROSE       PTCLDY    39  29  67 S6        30.33S WCI  35
CORTEZ         CLEAR     33  26  75 E3        30.31F
PAGE, AZ       CLEAR     56  33  42 CALM      30.18S
GRAND CANYON   PTCLDY    31  23  72 CALM      30.32F SMOKE
KINGMAN        CLEAR     59  41  51 S8        30.12S
FLAGSTAFF      CLEAR     36  31  82 CALM      30.35F

$$

REGIONAL REPORTS    NEVADA/IDAHO/WYOMING

CITY           SKY/WX    TMP DP  RH WIND       PRES   REMARKS
LAS VEGAS, NV  CLEAR     66  38  35 S6        29.98S
ELY            CLEAR     49  30  48 SW12      30.16F
ELKO           CLEAR     55  26  32 CALM      30.02F
POCATELLO, ID  CLEAR     34  29  82 CALM      30.03F
BURLEY         CLEAR     46  33  60 NE3       29.96F
EVANSTON, WY   PTCLDY    49  19  30 E5        30.24F
ROCK SPRINGS   PTCLDY    42  26  53 SE5       30.26S
KEMMERER       CLEAR     34  27  75 N9        30.26F WCI  26

$$



USA.gov is the U.S. government's official web portal to all federal, state and local government web resources and services.